Flag for Germany Weather past 2 weeks in Augsburg, Bavaria, Germany

Now
59 °F

Sunny.


Feels Like: 59 °F
Forecast: 57 / 79 °F
Wind: 2 mph from North

Location: Augsburg Airport

Current Time: Aug 1, 2015 at 8:38:52 AM

Latest Report: Aug 1, 2015 at 8:20 AM


Visibility: 10 mi

Pressure: 29.95 "Hg

Humidity: 55%

Dew point: 43 °F

Location of AugsburgLocation

Historic Weather in Augsburg — Graph

°F

Augsburg temperature yesterday

Maximum temperature yesterday: 75 °F (at 5:20 PM)
Minimum temperature yesterday: 46 °F (at 6:50 AM)
Average temperature yesterday: 67 °F

Past Weeks' High & Low Weather Summary

 TemperatureHumidityPressure
High97 °F (Jul 22, 4:20 PM)100% (Jul 20, 5:50 AM)30.15 "Hg (Jul 20, 5:50 AM)
Low43 °F (Jul 30, 5:50 AM)18% (Jul 17, 3:50 PM)29.74 "Hg (Jul 24, 6:50 PM)
Average73 °F52%29.96 "Hg
* Reported Jul 17 7:20 AM — Aug 1 7:20 AM, Augsburg, Weather by CustomWeather, © 2015

Note: Actual official high and low records may vary slightly from our data, if they occured in-between our weather recording intervals... More about our weather records

Advertising

Augsburg weather history for previous 24 hours

 ConditionsComfort  
Time TempWeatherWind HumidityBarometerVisibility
7:20 AM
Sat, Aug 1
55 °FPassing clouds.5 mph63%29.92 "HgN/A
6:50 AM55 °FSunny.3 mph63%29.92 "Hg10 mi
8:50 PM
Fri, Jul 31
64 °FPassing clouds.5 mph46%29.98 "HgN/A
8:20 PM68 °FSunny.5 mph35%29.98 "Hg10 mi
7:50 PM72 °FPassing clouds.6 mph31%29.98 "HgN/A
7:20 PM73 °FPassing clouds.6 mph29%29.98 "HgN/A
6:50 PM73 °FPassing clouds.8 mph25%29.98 "HgN/A
6:20 PM73 °FPassing clouds.6 mph27%29.98 "HgN/A
5:50 PM73 °FPassing clouds.9 mph27%29.98 "HgN/A
5:20 PM75 °FPassing clouds.10 mph25%29.98 "HgN/A
4:50 PM73 °FPassing clouds.8 mph27%29.98 "HgN/A
4:20 PM73 °FPassing clouds.9 mph25%30.01 "HgN/A
3:50 PM73 °FPassing clouds.9 mph27%30.01 "HgN/A
3:20 PM73 °FPassing clouds.9 mph29%30.01 "HgN/A
2:50 PM72 °FPassing clouds.9 mph29%30.04 "HgN/A
2:20 PM72 °FPassing clouds.8 mph33%30.04 "HgN/A
1:50 PM72 °FSunny.6 mph31%30.04 "Hg10 mi
1:20 PM70 °FPassing clouds.7 mph35%30.07 "HgN/A
12:50 PM68 °FPassing clouds.5 mph38%30.07 "HgN/A
12:20 PM68 °FSunny.6 mph35%30.07 "Hg10 mi
11:50 AM68 °FSunny.5 mph38%30.07 "Hg10 mi
11:20 AM66 °FPassing clouds.6 mph43%30.09 "HgN/A
10:50 AM66 °FSunny.6 mph43%30.09 "Hg10 mi
10:20 AM64 °FSunny.3 mph46%30.09 "Hg10 mi
9:20 AM59 °FPassing clouds.5 mph55%30.09 "HgN/A
8:50 AM59 °FSunny.2 mph59%30.09 "Hg10 mi
8:20 AM55 °FSunny.5 mph67%30.09 "Hg10 mi
Weather by CustomWeather, © 2015

See weather overviewHow to use our weather pages